Flag for Chile Weather past 2 weeks in Viña del Mar, Chile

Now
82 °F

Sunny.


Feels Like: 80 °F
Forecast: N/A
Wind: 20 mph from Southwest

Location: Pudahuel

Current Time: Jan 31, 2015 at 8:25:32 PM

Latest Report: Jan 31, 2015 at 8:00 PM


Visibility: 10 mi

Pressure: 29.83 "Hg

Humidity: 25%

Dew point: 43 °F

Location of Viña del MarLocation

Historic Weather in Viña del Mar — Graph

°F

Viña del Mar temperature yesterday

Maximum temperature yesterday: 90 °F (at 4:00 PM)
Minimum temperature yesterday: 57 °F (at 7:00 AM)
Average temperature yesterday: 72 °F

Past Weeks' High & Low Weather Summary

 TemperatureHumidityPressure
High90 °F (Jan 24, 4:00 PM)94% (Jan 18, 8:00 AM)30.09 "Hg (Jan 18, 8:00 AM)
Low55 °F (Jan 18, 6:00 AM)18% (Jan 24, 4:00 PM)29.83 "Hg (Jan 26, 4:00 PM)
Average71 °F52%29.94 "Hg
* Reported Jan 16 7:00 PM — Jan 31 7:00 PM, Viña del Mar, Weather by CustomWeather, © 2014

Note: Actual official high and low records may vary slightly from our data, if they occured in-between our weather recording intervals... More about our weather records

Advertising

Viña del Mar weather history for previous 24 hours

 ConditionsComfort  
Time TempWeatherWind HumidityBarometerVisibility
7:00 PM
Jan 31
86 °FSunny.18 mph24%29.83 "Hg10 mi
6:00 PM88 °FSunny.20 mph22%29.83 "Hg10 mi
5:00 PM90 °FSunny.16 mph20%29.83 "Hg10 mi
4:00 PM90 °FPassing clouds.16 mph21%29.83 "HgN/A
3:00 PM90 °FPassing clouds.12 mph21%29.86 "HgN/A
2:00 PM86 °FPassing clouds.14 mph29%29.89 "HgN/A
1:00 PM84 °FPassing clouds.12 mph31%29.89 "HgN/A
12:00 PM79 °FPassing clouds.6 mph37%29.92 "HgN/A
11:00 AM73 °FSunny.2 mph44%29.92 "Hg10 mi
10:00 AM70 °FPassing clouds.3 mph50%29.92 "HgN/A
9:00 AM63 °FPassing clouds.3 mph59%29.92 "HgN/A
8:00 AM59 °FSunny.3 mph68%29.92 "Hg10 mi
7:00 AM59 °FClear.3 mph68%29.92 "Hg10 mi
6:00 AM61 °FClear.8 mph63%29.89 "Hg10 mi
5:00 AM59 °FClear.6 mph68%29.89 "Hg10 mi
4:00 AM59 °FClear.7 mph68%29.89 "Hg10 mi
3:00 AM61 °FClear.7 mph63%29.89 "Hg10 mi
2:00 AM63 °FClear.7 mph59%29.92 "Hg10 mi
1:00 AM66 °FClear.10 mph52%29.92 "Hg10 mi
12:00 AM66 °FClear.10 mph56%29.92 "Hg10 mi
11:00 PM
Jan 30
68 °FClear.10 mph53%29.92 "Hg10 mi
10:00 PM72 °FClear.10 mph47%29.89 "Hg10 mi
9:00 PM77 °FClear.15 mph39%29.86 "Hg10 mi
8:00 PM79 °FSunny.16 mph37%29.86 "Hg10 mi
Weather by CustomWeather, © 2014

See weather overviewHow to use our weather pages